Regional Weather Roundup
Issued by NWS

Home | Current Version | Previous Version | Graphics & Text | Print | Product List | Glossary Off
Versions: 1 2 3 4 5 6 7 8 9 10 11 12 13 14 15 16 17 18 19 20 21 22 23 24 25 26 27 28 29 30 31 32 33 34 35 36 37 38 39 40 41 42 43 44 45 46 47 48 49 50

145
ASUS43 KLMK 232310
RWRKY
KENTUCKY REGIONAL WEATHER ROUNDUP
NATIONAL WEATHER SERVICE LOUISVILLE KY
700 PM EDT THU MAR 23 2017

NOTE "FAIR" INDICATES FEW OR NO CLOUDS BELOW 12,000 FEET
WITH NO SIGNIFICANT WEATHER AND/OR OBSTRUCTIONS TO VISIBILITY.

KYZ001>023-026-027-061>063-070>075-240000-
WESTERN AND SOUTH CENTRAL KENTUCKY

CITY           SKY/WX    TMP DP  RH WIND       PRES   REMARKS
PADUCAH        SUNNY     60  43  53 E9        30.14F
HENDERSON      SUNNY     54  37  54 SE7       30.18F
OWENSBORO      MOSUNNY   57  42  57 SE9       30.22F
HOPKINSVILLE   NOT AVBL
BOWLING GREEN  PTSUNNY   64  44  48 SE7       30.23F
GLASGOW        CLOUDY    59  44  58 SE6       30.25S
$$

KYZ024-025-028>034-038-045-046-053-240000-
NORTH CENTRAL KENTUCKY

CITY           SKY/WX    TMP DP  RH WIND       PRES   REMARKS
LOUISVILLE/SDF PTSUNNY   62  31  31 S9        30.23F
LOUISVILLE/LOU PTSUNNY   62  33  33 S7        30.24F
FORT KNOX      CLOUDY    59  35  40 S6        30.23F
$$

KYZ035>037-039>044-047>052-055>060-089>105-240000-
NORTHEAST KENTUCKY

CITY           SKY/WX    TMP DP  RH WIND       PRES   REMARKS
LEXINGTON      CLOUDY    62  30  29 S6        30.26F
COVINGTON      PTCLDY    58  29  33 S10       30.25S
FRANKFORT      PTCLDY    63  31  30 S7        30.24F
$$

KYZ054-064>069-076>088-106>120-240000-
SOUTHEAST KENTUCKY

CITY           SKY/WX    TMP DP  RH WIND       PRES   REMARKS
JACKSON        CLEAR     65  27  23 CALM      30.27F
LONDON         PTCLDY    64  29  26 S8        30.28S
SOMERSET       CLOUDY    63  32  31 S8        30.28S
MIDDLESBORO    PTCLDY    63  37  37 S7        30.31S
MONTICELLO     PTCLDY    64  38  38 E7        30.28S
$$





USA.gov is the U.S. government's official web portal to all federal, state and local government web resources and services.